Location: Newark
(7.0858°N, 171.3717°E)
Time: 03:03:25
(UTC+00:00)

Transit 4A - Pass Details

Date: 27 November 2020
Orbit: 864 x 980 km, 66.8° (Epoch: 20 January)

Event Time Altitude Azimuth Distance (km) Brightness Sun altitude
Rises 08:09:16 0° 315° (NW) 3,589 11.3 -27.5°
Reaches altitude 10° 08:12:25 10° 300° (WNW) 2,624 10.7 -28.2°
Maximum altitude 08:16:52 21° 253° (WSW) 1,911 10.2 -29.2°
Drops below altitude 10° 08:21:16 10° 205° (SSW) 2,567 10.7 -30.2°
Sets 08:24:20 0° 189° (S) 3,488 11.3 -31.0°
